Theta_e
314 314 315 318 321 323 324 323 323 322 323 321 319 322 319 318 321 320 319 319 318 318 318 318 318 317 319 323 324 324 325 326 326 325 322 326 330 325 324 329 333 333 333 336 336 337 337 337 338 338 338 337 337 337 338 336 333 331 331 332 332 332 333 334 331 328 324 322 323 322 323 322 320 322 326 327 328 329 330 332 332 331 329 324 317 313 312 310 310 311 312 313 314 313 312 311 312
314 314 316 320 322 323 323 323 330 329 324 319 317 320 318 320 321 319 320 320 319 318 318 319 319 320 320 321 322 325 328 330 329 326 327 329 330 325 324 328 332 333 332 335 336 336 338 337 338 338 338 337 337 337 336 335 332 330 329 329 330 330 332 334 332 327 323 322 323 323 323 322 320 318 323 327 327 328 329 331 332 330 328 322 313 311 310 309 308 308 309 310 310 310 310 310 309
314 315 318 322 324 322 325 325 329 328 324 319 317 319 319 320 321 319 319 318 318 317 318 318 318 318 319 322 323 326 328 329 327 326 327 327 330 327 327 331 334 335 333 334 336 336 337 338 338 338 337 337 337 337 336 335 332 331 330 330 330 329 331 333 332 326 322 323 322 323 323 321 319 318 322 327 329 328 327 329 329 328 325 318 312 312 311 310 308 308 309 309 309 309 309 309 309
314 319 322 322 325 324 332 332 332 329 321 321 319 319 320 320 321 317 317 317 318 318 317 317 318 318 320 322 322 324 327 327 326 325 325 326 330 329 330 335 336 337 335 334 336 336 337 337 337 337 337 337 337 337 336 336 334 332 332 331 330 330 330 331 330 326 322 322 322 323 322 320 319 320 323 328 329 327 325 324 325 324 322 317 314 313 312 311 308 307 308 309 309 309 309 307 307
318 322 323 322 325 324 332 330 333 332 321 324 321 318 320 320 321 315 315 318 317 318 317 317 318 318 320 321 320 322 324 325 325 324 324 325 329 330 332 335 337 337 334 335 336 336 336 336 335 336 337 337 337 337 336 336 335 333 332 331 330 330 329 329 328 325 323 322 323 322 322 320 320 322 324 327 328 326 324 323 322 321 321 320 317 314 314 313 308 307 307 308 308 307 306 305 306
321 323 322 321 322 321 329 325 324 326 319 325 321 318 320 317 318 315 315 317 316 318 317 317 318 318 322 323 322 322 323 323 322 322 323 324 329 332 331 333 337 336 333 334 336 336 336 336 334 335 336 337 337 337 336 336 335 334 332 331 330 329 328 327 325 323 322 321 321 322 323 321 322 324 326 328 328 326 324 323 322 324 326 324 320 317 317 315 310 307 306 307 306 305 304 304 304
322 322 322 324 323 320 328 324 319 322 318 320 321 320 318 314 315 315 315 316 316 317 317 318 316 318 322 322 323 323 322 322 321 320 321 324 330 332 330 333 336 335 335 335 336 337 336 337 335 335 336 336 336 337 336 336 335 334 333 332 331 330 327 326 325 322 321 320 321 324 326 323 323 326 327 328 329 328 327 326 326 327 328 326 323 321 319 317 313 308 306 306 305 304 304 304 304
322 321 321 329 332 326 329 323 320 324 318 315 318 318 315 314 315 315 315 316 316 316 316 317 316 320 319 319 323 323 322 322 320 320 321 323 329 332 330 332 333 332 335 336 337 337 336 336 335 335 335 334 334 336 336 335 334 335 334 333 333 331 328 326 325 322 321 321 323 327 328 326 326 327 328 329 329 329 329 329 329 329 327 326 325 324 321 319 316 311 306 305 304 304 304 304 304
322 322 321 329 333 328 327 321 319 320 318 316 316 316 315 315 315 315 315 314 315 315 316 317 316 321 320 320 323 322 321 320 319 322 323 324 327 329 328 332 331 328 332 334 336 336 334 334 333 334 335 334 332 334 335 334 334 334 334 334 333 332 329 327 325 322 321 322 324 328 329 329 329 329 329 328 329 329 330 330 330 329 327 327 325 325 323 320 319 315 309 305 304 304 303 304 304
322 323 320 328 331 323 319 318 319 319 317 317 315 316 316 315 316 315 315 314 315 316 317 317 317 319 319 320 321 321 320 318 320 323 324 326 328 327 325 331 331 327 328 330 334 335 332 332 331 333 336 335 332 334 335 334 334 334 334 334 333 332 331 328 326 323 322 322 324 327 328 328 330 330 330 328 328 328 329 330 330 329 328 328 326 325 325 321 319 318 314 307 304 304 303 303 304
322 321 321 333 331 322 320 319 319 319 317 317 315 316 316 316 316 315 316 315 315 317 316 317 318 317 317 318 318 320 319 317 321 322 324 328 328 328 327 328 329 329 328 327 330 332 330 330 330 331 334 333 331 333 334 334 333 333 333 334 334 333 331 330 328 325 323 323 323 326 328 329 329 329 329 329 328 327 327 328 329 329 329 328 327 325 325 322 318 316 316 311 306 304 303 303 304
321 323 335 339 328 324 325 321 318 318 318 318 317 317 316 316 316 315 316 316 315 316 316 317 318 317 316 316 317 318 318 317 320 320 322 326 327 328 327 326 327 328 329 327 326 326 326 326 327 328 331 332 331 331 332 332 332 332 333 333 334 333 332 331 330 327 325 324 324 325 326 327 328 327 327 327 327 326 325 325 326 327 327 328 327 325 323 321 318 315 316 314 309 305 303 303 303
320 325 344 333 322 328 324 321 320 320 318 318 317 316 317 316 316 316 316 316 315 316 316 316 317 317 317 315 315 317 318 317 318 319 320 322 323 324 325 325 326 326 327 326 324 322 322 323 325 326 328 331 330 330 331 331 331 332 332 332 333 333 333 332 331 329 327 325 325 325 324 324 325 324 325 325 325 324 323 322 323 323 324 326 325 324 322 320 318 315 315 314 311 308 305 303 303
318 321 338 328 321 326 322 320 319 320 321 320 317 315 318 316 316 317 317 318 316 315 316 316 317 317 316 314 315 315 317 316 316 317 317 318 319 320 321 322 323 324 324 322 322 321 320 320 322 324 327 329 328 329 330 330 331 331 331 332 332 333 333 332 331 330 328 327 325 325 323 323 322 322 323 323 323 323 322 322 321 320 321 322 323 321 320 320 318 316 315 314 313 310 308 305 304
316 317 332 329 322 321 321 323 321 322 322 319 318 315 317 316 316 317 317 318 316 315 315 316 316 317 317 316 316 315 315 315 314 315 315 316 317 317 318 318 318 320 320 319 319 318 318 318 319 322 324 325 325 326 328 329 330 330 331 332 333 333 333 332 332 331 330 328 327 325 324 324 323 323 323 323 324 325 325 325 322 321 320 320 320 319 320 320 319 317 316 315 314 313 312 310 307
317 318 330 328 320 320 319 321 322 323 320 316 316 316 317 316 316 317 317 317 316 315 316 316 315 316 316 316 316 314 314 314 313 314 314 314 315 315 316 316 316 316 316 316 316 315 316 316 317 320 322 323 323 324 326 327 328 330 331 332 333 334 334 333 332 332 331 329 327 326 326 325 325 325 324 324 326 328 328 326 323 321 321 321 320 321 321 321 320 318 316 316 317 317 317 316 313
316 323 337 330 320 320 318 320 322 324 321 316 315 316 317 316 316 316 316 317 316 315 315 315 315 316 316 315 315 314 313 313 313 314 314 314 314 314 315 315 315 315 315 315 315 315 315 315 315 317 319 321 323 324 325 327 327 328 330 332 333 334 334 334 333 332 331 330 328 327 327 326 326 326 325 326 328 329 329 327 325 323 323 322 322 323 322 321 321 319 318 318 319 320 322 322 320
320 333 340 327 320 319 318 321 320 320 320 315 314 317 317 317 317 316 316 316 316 315 315 315 315 315 316 316 315 313 313 313 313 313 314 314 314 314 314 314 314 315 315 314 315 315 314 315 314 315 317 319 321 322 323 326 327 327 328 330 332 333 334 333 333 333 332 331 330 329 328 326 326 326 326 327 330 330 329 327 326 325 324 323 324 324 323 322 322 321 320 321 322 323 324 324 324
323 336 335 325 324 320 315 318 315 316 317 315 316 316 317 318 316 316 316 315 315 315 314 313 314 314 315 316 315 313 313 313 313 313 313 314 314 314 314 314 315 314 314 314 314 314 315 314 314 314 315 316 318 318 321 325 326 327 328 329 331 332 332 333 332 332 332 332 331 330 329 327 327 327 327 328 330 330 328 327 327 325 324 324 324 324 324 323 323 324 323 323 324 325 325 325 324
318 329 329 322 323 318 314 316 315 316 316 315 316 316 317 317 317 317 316 315 314 316 315 313 314 314 314 315 314 314 313 313 313 314 314 314 314 314 314 314 314 315 314 314 314 314 314 314 314 315 314 315 315 316 319 322 324 325 326 328 329 331 331 331 331 331 330 331 331 331 331 329 328 328 329 329 329 329 328 327 328 325 324 326 325 325 325 324 325 326 325 324 325 325 325 325 324
316 324 326 318 316 317 317 317 316 317 316 316 317 316 317 316 317 317 315 316 315 315 316 316 316 316 315 314 314 314 313 313 313 314 314 314 314 314 315 315 314 315 314 314 314 314 314 314 314 314 314 315 315 316 317 319 321 323 324 326 328 329 329 329 330 330 330 330 331 331 331 330 329 330 330 330 329 329 328 328 327 326 326 327 327 327 326 325 326 327 326 325 324 325 325 324 323
317 318 319 316 315 318 318 316 317 316 316 317 316 316 317 317 317 316 316 318 318 316 316 317 317 316 316 315 314 314 313 313 313 313 314 314 314 314 314 314 314 314 314 314 314 314 314 314 314 314 314 314 315 316 317 317 319 322 324 327 329 329 329 329 329 329 330 329 330 330 330 331 330 330 331 331 331 330 330 329 328 328 328 328 328 327 326 325 326 326 327 326 324 324 324 323 322
320 317 314 316 316 318 318 317 317 317 317 317 316 316 317 316 317 317 316 317 318 316 317 317 316 316 316 315 315 313 313 312 312 313 313 314 314 314 314 313 313 313 313 313 313 313 313 314 314 314 314 314 316 317 318 317 319 324 325 327 330 331 330 330 330 329 329 329 329 329 330 331 331 330 331 331 331 330 330 331 329 329 328 328 328 328 326 327 327 326 327 327 325 325 324 322 321
322 320 315 316 317 317 317 317 317 317 318 317 316 316 316 316 316 316 316 316 316 316 317 317 316 316 315 315 314 313 313 312 312 312 312 313 313 313 313 313 313 313 313 313 313 313 313 314 313 314 314 314 316 318 319 319 321 325 325 328 331 332 331 331 331 330 330 329 328 329 330 331 332 331 331 331 330 330 330 330 329 329 329 328 328 328 328 328 328 328 328 327 326 326 324 322 320
320 319 316 316 317 317 317 317 317 316 316 316 316 316 316 316 315 315 316 316 316 315 317 316 316 315 315 314 314 313 313 312 312 312 312 312 312 312 312 312 313 312 313 312 312 313 313 313 313 313 313 313 315 318 321 321 322 324 324 327 330 331 331 331 331 330 331 332 329 328 329 331 331 331 330 331 330 330 329 329 329 329 329 328 328 328 328 328 328 328 328 327 327 326 323 321 320
317 317 316 316 316 316 316 316 316 316 315 315 315 315 315 315 315 315 315 315 315 316 316 316 316 315 315 314 314 314 313 313 313 312 312 312 312 312 312 313 313 313 313 313 312 312 312 312 312 312 312 312 313 317 322 322 323 324 324 326 328 329 330 330 330 330 331 332 330 329 329 331 331 330 330 330 330 329 329 329 329 329 329 328 328 328 327 327 328 327 327 327 326 325 322 321 320
316 316 316 316 317 316 316 316 316 316 315 315 316 315 315 314 314 316 316 315 315 315 315 315 315 315 314 314 314 313 313 313 313 313 313 313 313 313 313 313 313 314 313 314 313 312 312 312 312 312 312 312 312 316 321 322 323 323 324 326 327 328 329 330 330 329 329 330 330 330 330 330 331 330 330 329 329 329 330 329 328 328 328 328 328 329 328 327 327 327 327 326 325 324 322 321 320
315 316 318 317 315 316 316 315 315 315 315 315 315 315 314 313 315 316 315 315 315 314 315 314 313 313 313 313 313 313 312 313 313 313 314 314 314 313 313 314 313 314 314 314 314 313 313 313 312 312 312 312 312 315 320 322 323 325 326 327 327 327 327 327 327 325 327 329 329 329 330 330 330 330 330 330 330 331 330 327 326 325 326 328 329 329 328 328 327 326 326 326 324 322 321 321 321
316 316 319 321 320 320 316 314 314 315 316 315 315 315 317 316 315 316 315 314 315 313 314 313 312 312 312 313 312 312 312 312 313 314 314 314 314 313 313 313 313 314 314 314 314 313 313 313 312 312 312 312 313 315 320 323 323 324 327 328 330 331 327 325 325 323 325 328 328 328 327 328 329 329 329 330 329 329 326 324 325 326 326 329 329 329 328 327 326 326 325 324 322 321 322 321 320
318 315 316 323 324 324 317 313 315 314 315 315 314 318 326 324 315 314 314 313 314 312 312 313 312 312 312 312 312 312 312 312 313 314 314 314 314 313 313 313 313 313 314 314 314 314 313 313 312 312 312 313 313 316 320 323 323 324 326 328 329 330 327 326 326 324 325 327 327 326 325 325 326 327 327 326 326 326 324 325 328 329 328 329 328 328 327 326 324 324 323 321 320 320 321 320 320
319 314 320 324 320 328 323 312 314 315 314 314 315 319 325 325 316 313 314 313 313 312 312 312 312 312 312 312 312 311 312 312 313 313 314 314 313 313 313 313 313 313 313 313 314 314 313 312 312 312 312 313 314 317 321 324 325 325 325 325 326 326 324 324 325 325 325 326 326 325 324 323 322 323 322 322 325 327 327 327 328 328 327 327 326 325 324 323 322 321 320 320 319 320 321 320 320
324 316 327 328 318 331 330 312 313 316 314 313 316 320 321 321 316 313 313 312 313 313 312 312 312 312 311 312 312 311 312 311 312 312 313 314 313 313 312 312 313 312 313 313 313 313 312 312 312 312 312 313 315 316 319 321 323 325 325 324 324 325 324 323 324 325 324 323 323 323 322 321 321 322 320 321 326 328 326 326 326 325 325 324 323 322 322 321 320 320 319 319 319 320 320 319 318
334 321 326 330 321 326 327 314 313 314 315 313 314 319 322 319 314 312 313 312 312 312 312 312 312 312 312 312 312 311 311 311 312 312 313 314 313 313 312 312 312 312 313 312 313 312 312 312 311 312 312 314 319 320 319 321 324 326 325 324 322 321 322 323 323 323 321 320 320 320 320 320 320 320 319 320 324 325 324 324 323 323 322 322 322 321 321 321 320 320 319 319 318 317 316 317 317
333 322 321 329 324 322 324 322 315 312 315 315 314 316 319 318 313 311 312 312 311 311 312 313 313 313 312 311 311 311 311 312 312 313 314 314 313 313 312 312 312 312 313 312 312 312 311 311 311 313 313 315 319 322 323 325 325 323 323 324 322 320 319 321 321 320 319 319 320 319 318 318 318 318 319 320 322 323 323 322 322 322 322 322 322 322 322 321 320 319 318 317 316 315 315 316 316
330 324 323 326 324 320 323 325 317 313 316 317 316 316 316 316 313 311 312 312 311 311 313 313 313 313 312 311 311 311 312 312 312 313 313 313 313 312 312 313 313 312 312 312 312 311 311 311 311 312 314 315 316 319 322 322 321 321 325 325 323 321 319 318 319 319 320 320 320 318 318 319 320 321 322 322 322 323 323 322 322 322 322 322 322 321 320 319 318 315 312 311 311 312 313 314 315
332 333 333 330 326 323 324 325 319 314 316 318 317 317 316 316 315 312 312 312 311 312 312 311 311 311 311 311 312 312 312 313 312 312 312 312 313 312 312 313 313 312 312 312 311 311 311 311 312 312 313 315 316 319 321 319 318 320 323 322 321 319 317 317 319 320 321 319 318 318 318 320 322 322 322 323 323 323 323 323 322 322 322 321 319 316 314 313 311 308 306 306 306 307 308 309 311
327 329 330 328 326 324 325 326 318 313 316 321 318 317 316 316 316 313 311 311 309 309 310 309 310 311 311 311 312 313 313 313 312 310 311 311 311 311 311 312 312 311 311 311 311 311 311 311 312 313 314 314 314 319 321 320 320 321 321 321 320 318 317 318 320 321 319 316 317 319 319 320 321 322 322 322 322 322 322 321 321 320 318 315 312 309 308 307 306 304 303 303 302 302 304 306 308
320 321 322 323 324 324 324 323 318 312 315 323 321 318 317 315 315 313 311 310 309 310 309 310 311 311 311 312 312 313 312 312 311 310 310 310 310 310 311 311 311 311 311 311 311 310 311 312 312 313 315 317 315 316 319 321 322 322 321 321 319 318 318 320 319 319 316 315 317 319 318 320 321 321 321 321 321 321 319 318 317 314 310 308 306 305 304 303 302 301 301 300 300 300 301 304 306
319 320 319 322 325 324 322 322 319 313 315 323 324 319 317 317 316 313 311 310 312 313 313 313 313 312 311 312 312 312 312 311 311 310 310 310 310 310 310 311 311 311 311 311 311 310 311 313 313 313 316 319 318 317 318 319 320 320 320 319 318 318 318 319 318 316 316 316 317 317 318 320 320 320 320 319 317 315 313 311 309 307 305 304 304 303 302 301 300 299 298 298 298 298 299 302 305
320 320 319 322 325 323 324 323 319 316 317 320 322 318 316 315 316 315 313 312 313 315 315 315 314 314 313 314 314 313 312 312 311 311 310 310 310 310 310 311 311 311 310 310 311 311 312 313 314 314 315 318 318 317 315 315 317 317 317 317 317 317 317 316 316 315 314 315 316 317 318 318 317 316 315 312 310 308 306 305 304 303 302 301 301 300 300 299 298 298 297 297 297 297 298 301 304
322 322 320 322 325 324 324 323 321 323 323 320 318 320 321 320 319 318 316 313 314 314 315 315 315 315 314 313 313 314 313 313 312 311 311 310 310 310 310 311 311 311 310 310 311 311 312 312 314 315 315 317 317 315 313 315 315 315 316 317 317 316 315 315 315 314 312 313 316 317 315 313 311 309 307 306 305 304 303 302 301 301 300 299 299 298 298 298 297 297 297 296 296 296 297 298 300
323 324 322 322 325 324 323 322 322 326 329 323 318 324 332 330 323 321 320 319 319 316 313 313 316 316 314 313 312 312 312 312 312 312 312 312 310 310 310 310 310 311 310 310 311 311 313 312 313 314 315 316 316 313 314 315 314 313 315 316 315 314 314 313 313 312 311 313 315 313 308 306 305 305 304 303 302 302 301 300 299 299 299 298 297 297 298 297 297 297 296 296 296 296 295 295 296
323 326 324 323 322 323 322 322 322 327 330 322 318 325 331 326 322 325 325 325 325 319 314 314 316 317 315 314 313 312 311 311 310 311 311 311 311 310 310 310 310 311 310 310 310 311 313 312 313 312 312 313 313 314 316 316 314 314 315 314 313 313 312 312 312 312 313 313 310 306 304 304 303 302 302 301 300 300 299 298 298 298 298 297 297 297 297 297 297 297 296 296 296 296 295 295 295
327 326 325 325 322 323 324 322 323 326 326 323 322 324 325 323 323 325 323 322 323 320 318 316 315 316 316 315 314 312 312 312 311 311 311 311 311 311 311 311 311 310 310 310 310 311 312 312 312 311 310 312 314 315 315 314 313 313 312 311 312 312 311 312 313 313 311 308 305 303 303 302 300 300 300 299 298 298 298 297 297 297 297 297 297 297 297 296 296 296 296 295 295 295 294 294 294
327 323 324 327 325 328 330 326 326 324 323 326 325 322 323 325 326 325 322 322 323 322 322 319 315 316 316 316 315 313 312 312 312 312 312 312 311 311 311 310 310 310 309 309 310 310 311 312 312 311 311 312 315 315 314 313 312 310 309 309 311 312 312 312 312 309 306 304 303 302 301 300 299 298 298 298 297 297 297 297 297 296 297 297 296 296 296 296 295 295 295 294 294 294 294 294 293
320 319 323 327 326 328 330 328 327 327 324 326 326 323 324 326 327 326 323 323 325 323 322 318 314 316 317 316 315 314 312 311 311 312 312 312 312 311 311 310 309 309 309 309 309 309 311 312 312 312 312 312 313 314 313 312 310 309 308 309 310 311 311 309 307 305 303 302 302 301 300 299 298 298 297 297 297 296 296 296 296 296 296 296 296 296 296 295 295 294 294 294 294 294 293 293 293
315 322 329 330 329 328 330 327 325 327 325 324 326 324 323 325 328 328 325 326 327 325 325 323 317 317 317 316 316 314 313 312 311 311 311 310 310 310 310 309 309 309 309 309 309 310 311 312 312 313 312 312 312 312 312 311 310 309 309 309 310 310 307 305 304 303 303 301 300 300 299 298 297 297 297 296 296 296 296 296 296 296 296 296 296 296 295 295 295 294 294 294 294 293 293 293 292
318 331 332 329 330 329 328 327 325 326 327 326 325 321 320 324 327 328 325 325 326 324 327 329 322 318 317 317 316 315 314 313 311 311 310 310 309 309 309 309 309 309 309 309 309 310 311 312 311 312 313 312 312 312 311 311 310 310 309 309 309 307 304 304 304 303 302 301 300 299 298 298 297 297 296 296 296 296 296 296 296 296 296 296 295 295 295 295 295 294 294 294 294 293 293 292 292
322 330 327 325 327 327 327 327 325 326 325 321 318 318 321 322 323 324 323 323 325 320 318 320 318 316 317 317 316 316 314 313 312 311 310 309 309 309 309 309 308 308 308 308 309 310 311 311 311 312 313 312 312 313 311 310 310 309 309 309 307 304 303 303 303 302 301 300 300 299 299 298 298 297 296 296 296 295 295 296 296 296 296 296 295 295 295 295 295 294 294 294 293 293 293 292 292
321 324 325 326 326 327 331 329 324 325 325 318 314 318 323 323 323 323 321 320 321 317 313 314 314 314 316 316 316 315 314 313 312 311 311 310 310 309 309 309 308 308 308 308 309 310 310 311 312 312 313 312 312 313 312 310 310 309 308 307 304 303 303 302 301 301 301 300 299 299 299 299 298 297 296 296 296 296 295 296 296 296 296 296 296 296 295 295 295 294 294 294 293 293 292 292 292
319 322 323 325 328 330 331 329 328 329 327 320 315 320 327 328 326 320 314 312 313 313 314 314 312 313 314 314 314 314 313 313 312 311 311 310 310 309 309 309 309 308 307 308 309 310 310 311 312 312 312 312 312 312 312 310 308 307 306 305 303 302 302 301 300 300 300 299 299 298 298 298 297 297 296 296 296 296 296 296 296 296 296 296 296 296 295 295 295 294 294 293 293 292 292 292 292
319 321 322 324 326 327 324 325 326 325 325 322 319 323 327 325 322 316 311 311 310 310 311 312 311 311 311 312 313 313 313 313 312 311 310 310 309 309 309 309 309 308 307 308 309 309 309 311 313 312 312 311 311 312 311 309 307 306 304 303 303 302 301 300 300 299 299 299 298 298 297 297 296 296 296 296 296 296 296 296 296 296 296 296 296 295 295 295 294 294 293 293 293 292 292 291 291
319 319 322 322 321 322 324 324 320 319 323 324 321 324 325 322 321 318 317 318 314 311 310 309 310 310 309 310 311 312 313 312 312 311 310 310 309 309 309 309 309 308 307 307 308 308 309 312 313 313 312 311 312 311 310 308 306 304 303 303 302 301 300 299 299 298 298 298 297 297 297 296 296 296 296 296 296 296 296 296 296 296 296 296 295 295 294 294 294 293 293 293 292 292 291 291 291
321 321 321 318 318 323 327 326 324 324 325 324 322 323 324 324 324 321 319 319 320 319 314 308 308 309 309 310 311 311 312 312 311 311 310 309 309 308 308 308 308 308 307 307 308 308 310 312 312 312 312 311 311 311 308 307 305 303 303 302 301 300 299 298 298 298 298 297 297 296 296 296 296 296 296 296 296 296 296 296 296 295 295 295 294 294 294 293 293 293 292 292 292 291 291 291 291
318 321 319 320 325 326 323 324 327 328 327 326 325 322 322 322 323 323 321 323 327 324 317 313 311 308 308 311 311 310 310 311 311 310 310 308 308 308 307 307 307 307 306 306 307 308 310 311 311 311 311 311 311 310 308 306 305 303 302 302 300 299 298 298 297 297 297 297 297 296 296 296 296 296 296 296 296 296 297 296 296 295 294 294 294 294 293 293 292 292 292 292 291 291 291 290 290
314 316 316 319 325 325 323 324 325 326 327 328 327 324 325 324 323 325 323 324 329 325 322 322 313 308 310 313 312 310 310 311 311 311 310 309 308 307 307 307 307 306 305 306 307 307 309 311 311 311 311 311 311 310 307 305 304 303 302 301 300 298 298 297 297 297 297 297 297 297 297 296 296 296 295 295 296 296 296 296 295 294 294 294 294 293 293 292 292 292 291 291 291 291 290 290 290
316 318 318 318 319 320 322 322 322 325 327 329 327 325 327 326 323 323 323 324 326 325 327 324 313 311 316 315 313 312 310 311 312 311 310 308 308 307 307 306 306 306 305 305 306 307 308 310 310 311 311 311 311 309 306 304 303 302 302 300 299 298 297 297 296 296 296 296 296 296 296 296 296 296 295 295 296 296 295 295 294 294 293 293 293 292 292 292 292 291 291 291 290 290 290 290 290
317 318 319 319 318 320 323 322 321 322 323 328 329 324 325 327 322 321 324 326 323 319 319 317 313 316 319 316 315 314 310 310 312 311 310 308 307 307 307 306 306 306 305 305 306 306 308 309 310 310 311 311 310 307 305 304 303 302 301 300 299 298 297 297 296 296 296 296 296 296 296 295 295 295 295 295 296 295 294 294 293 293 293 292 292 292 292 292 291 291 290 290 290 290 290 290 289
Wind_Speed
4 5 3 1 2 1 2 2 2 4 4 4 2 2 0 2 2 2 2 2 3 6 13 16 13 14 13 14 15 14 9 2 3 2 5 8 10 10 7 8 10 9 8 11 12 9 8 8 8 7 6 6 7 7 7 8 9 9 10 10 10 11 12 11 10 10 11 11 11 11 12 13 12 12 12 10 10 9 10 11 11 12 13 14 14 15 15 14 12 10 8 8 8 8 7 7 7
5 4 2 4 1 1 0 3 3 3 5 4 2 2 1 3 3 3 2 1 3 9 19 23 24 22 20 18 15 14 13 8 7 9 12 12 10 7 6 10 11 10 9 12 12 10 8 8 8 8 7 7 7 7 7 7 8 9 9 9 10 10 11 11 10 9 9 10 9 10 10 11 12 11 11 11 9 9 9 10 10 11 12 13 14 16 16 17 15 12 10 9 9 8 7 7 6
5 4 2 4 0 2 2 4 3 2 5 4 2 2 0 3 3 5 5 4 7 12 16 15 15 12 11 12 10 8 5 8 12 13 14 13 9 7 8 12 11 9 7 12 14 11 9 8 8 7 7 7 7 7 7 7 7 8 8 9 9 9 10 10 9 8 8 9 8 9 10 11 12 11 11 12 10 9 8 8 9 10 12 13 15 16 17 18 17 16 13 11 10 10 9 7 6
4 4 2 2 0 2 3 4 3 4 4 3 1 4 2 5 6 6 4 7 7 10 9 8 8 8 12 11 7 7 5 6 10 11 12 12 11 9 11 14 12 9 8 13 15 12 10 8 7 7 6 7 7 7 7 7 7 8 8 8 9 9 9 9 8 7 7 7 7 7 9 10 12 12 12 11 10 10 8 7 8 10 11 12 14 16 17 19 19 18 16 13 12 12 11 9 7
4 4 3 1 1 2 4 3 2 5 4 5 3 4 5 6 7 5 4 8 7 9 11 9 5 8 15 10 4 5 4 5 7 8 10 13 14 11 12 14 12 9 9 14 16 13 11 9 8 8 7 7 7 7 6 6 7 7 7 7 8 8 8 8 7 7 6 5 6 7 9 10 12 13 12 12 10 10 8 8 8 9 10 13 15 16 18 19 19 19 18 16 14 14 12 10 9
4 4 4 5 5 3 4 4 3 3 3 5 4 4 6 7 7 7 6 9 10 10 11 9 8 10 12 10 8 5 4 5 6 9 12 15 14 11 11 13 13 9 9 14 16 13 11 10 9 8 8 8 7 7 6 6 6 6 6 7 7 8 7 7 7 7 6 5 6 7 9 10 12 13 13 12 10 9 9 9 9 10 12 14 15 16 18 19 20 19 18 17 16 15 13 11 10
3 3 3 5 5 4 4 4 4 2 1 5 6 6 7 9 11 10 6 7 9 9 10 12 14 13 8 5 7 6 5 6 8 12 14 14 14 12 11 13 13 10 11 15 15 12 11 11 10 8 8 8 7 7 7 7 6 6 7 6 7 7 7 7 7 7 6 6 6 8 9 10 11 12 12 11 9 9 9 10 10 11 13 14 16 16 17 19 20 20 18 17 16 15 13 12 10
3 3 4 4 4 5 4 4 2 2 1 4 6 7 10 12 13 9 4 4 6 6 11 14 12 8 3 3 4 5 5 7 11 14 14 13 14 12 11 12 13 13 13 14 14 12 11 12 11 9 8 8 7 7 7 7 6 6 6 6 6 6 7 7 7 6 6 6 6 8 8 8 9 10 10 9 8 8 9 10 11 12 13 14 16 17 17 19 20 20 19 17 16 15 14 12 11
4 3 5 4 3 4 3 3 1 2 2 3 4 7 12 13 11 9 5 4 7 6 7 10 6 5 4 5 7 6 6 10 15 15 13 12 13 12 11 11 11 13 14 13 13 12 12 11 11 11 10 9 8 8 8 7 6 6 6 6 5 6 6 6 6 6 6 6 6 7 7 7 8 9 9 8 7 7 8 9 11 12 12 14 16 16 17 19 20 20 19 17 15 14 13 12 11
4 5 4 4 4 4 3 1 0 1 2 3 4 7 9 11 10 10 9 6 8 8 6 8 6 8 9 8 8 8 9 13 16 15 13 12 12 12 11 11 10 10 11 12 12 12 12 11 11 12 12 10 10 9 9 8 7 6 6 6 5 5 6 6 5 5 6 6 5 6 5 6 7 7 7 7 7 7 8 9 10 11 12 14 15 16 17 19 20 20 19 17 15 14 13 13 12
3 4 3 4 4 3 3 2 1 1 2 2 2 5 6 12 13 9 10 8 7 10 9 7 9 14 11 6 8 10 11 13 15 15 14 12 11 11 11 12 11 10 9 10 11 12 11 12 11 12 13 12 11 10 10 9 8 7 6 6 6 5 5 5 5 5 5 5 5 4 4 4 5 5 5 5 6 7 8 8 9 10 11 12 14 16 17 18 19 19 19 17 16 14 13 13 12
2 2 3 4 3 3 4 4 4 2 2 2 2 4 6 12 12 7 9 9 9 11 7 4 10 14 7 3 9 11 11 12 15 15 14 14 13 12 12 12 11 10 10 9 9 10 10 11 11 12 13 13 11 11 10 9 9 8 7 6 6 6 5 4 5 5 5 5 5 4 3 3 3 3 4 4 4 6 7 8 8 9 10 11 13 15 17 18 19 18 17 17 17 16 14 12 12
3 1 5 3 2 4 5 5 4 1 1 3 3 4 6 7 9 10 11 9 8 9 5 5 13 12 4 3 9 12 12 12 14 15 16 15 14 13 12 12 12 11 10 10 8 8 8 9 12 12 13 13 12 11 11 10 10 9 8 7 7 7 5 4 4 4 4 4 4 3 2 1 1 2 2 3 4 5 7 7 7 8 9 10 12 14 16 16 17 16 16 16 16 16 15 13 12
4 3 5 3 2 4 5 3 3 3 2 5 3 4 6 5 9 14 13 8 4 6 6 7 15 9 4 5 9 14 14 13 13 14 16 15 14 13 12 12 12 12 11 10 9 7 7 8 12 13 13 14 13 13 12 11 11 10 9 9 8 8 7 5 4 4 4 4 3 2 1 0 1 1 1 2 3 4 6 6 7 7 8 9 10 12 14 14 14 14 14 15 15 16 16 15 13
5 3 5 4 3 2 4 2 3 5 4 5 3 6 9 8 11 14 13 8 4 7 7 8 13 5 5 8 9 17 16 14 14 13 15 14 14 13 13 13 12 12 12 11 10 9 8 8 11 13 14 14 14 14 14 13 12 12 10 10 9 9 8 7 5 5 4 3 3 2 2 1 1 1 1 1 2 3 4 4 5 6 7 8 9 10 11 12 12 13 13 14 14 15 16 15 15
5 3 5 4 2 2 3 2 4 4 4 5 6 10 10 7 9 9 9 9 7 9 6 6 8 2 8 11 9 17 16 14 15 14 15 14 15 14 13 14 13 13 12 12 11 10 9 8 11 13 14 14 14 14 15 15 14 13 12 11 10 9 8 7 6 5 5 4 3 3 3 3 3 2 2 1 0 1 1 2 4 5 6 7 8 9 10 10 11 12 13 13 14 14 15 15 15
4 3 5 4 2 2 3 4 4 4 5 5 8 10 7 4 7 8 7 8 9 8 5 6 6 4 10 11 11 18 16 16 16 15 16 15 15 15 15 15 14 14 13 13 12 11 11 10 11 12 14 15 15 16 16 16 16 15 14 12 11 10 9 8 7 6 6 5 4 4 4 4 5 4 3 2 1 1 1 2 3 4 5 6 7 8 8 9 10 12 12 11 12 13 13 14 14
3 3 4 2 2 2 3 6 6 5 5 7 10 10 8 6 6 9 7 6 8 7 6 8 7 8 10 11 15 18 17 17 16 16 16 16 16 16 17 17 16 16 15 15 14 14 13 13 12 12 14 15 16 16 17 17 17 16 15 15 13 11 10 9 8 7 6 6 5 5 5 5 6 5 4 3 3 2 1 1 2 3 3 4 5 6 6 7 8 10 11 10 11 11 12 12 13
4 3 4 2 5 2 2 6 6 4 8 11 11 9 9 8 9 11 5 5 9 7 5 7 8 10 11 13 17 18 17 16 16 16 16 16 17 17 17 18 18 18 17 17 16 16 15 15 14 13 13 14 15 15 16 17 17 17 16 16 15 13 12 10 9 8 7 7 6 7 6 6 6 6 5 4 4 2 1 1 1 2 3 2 3 4 4 6 6 7 10 10 10 11 11 11 11
3 4 4 3 7 3 1 4 5 7 12 14 10 8 9 9 11 9 6 7 8 7 8 8 10 13 14 16 18 18 17 16 16 16 17 17 17 18 18 18 18 18 18 18 18 17 17 16 15 14 14 14 14 14 14 16 16 17 17 17 16 15 14 13 12 10 10 9 8 8 8 7 6 6 6 5 4 3 2 2 2 2 3 2 2 2 3 4 5 6 9 8 9 10 10 10 11
2 3 3 5 7 3 3 6 4 9 15 14 11 8 8 10 10 9 9 7 4 11 15 12 12 15 16 18 18 17 16 17 17 17 17 18 17 17 17 17 17 17 17 17 18 18 17 17 16 15 14 14 14 14 14 15 16 16 15 16 16 16 16 15 14 14 13 12 12 11 9 7 6 7 7 5 3 4 4 2 2 2 3 2 1 1 2 3 4 6 8 7 8 9 9 10 10
3 2 2 7 8 3 4 7 8 11 12 11 11 9 8 10 9 11 11 7 6 12 15 15 14 14 15 17 18 16 16 16 17 17 18 18 17 16 15 14 14 15 16 16 17 17 17 18 17 17 16 16 15 16 16 16 16 15 14 14 15 16 17 17 17 17 16 15 15 13 10 8 8 7 7 6 3 3 3 2 2 1 2 2 0 1 4 5 6 7 8 7 8 9 9 10 10
2 1 1 4 6 6 8 8 8 10 10 10 9 8 9 9 6 10 12 10 9 9 10 14 15 14 15 16 15 15 15 16 16 17 17 17 17 16 14 14 13 13 14 14 15 16 17 17 17 18 18 17 17 18 18 17 16 15 14 13 14 16 17 18 18 18 17 16 16 14 11 9 9 8 9 8 5 3 3 4 2 1 2 1 1 1 4 5 6 6 5 7 7 8 9 8 7
4 1 0 2 4 8 10 8 8 9 9 9 8 8 9 9 6 7 12 13 12 10 8 12 15 16 17 16 14 15 15 16 17 17 17 18 17 16 15 14 13 12 12 12 12 14 15 15 16 17 18 19 19 20 20 19 17 17 16 14 14 16 17 16 16 17 15 15 16 14 12 10 10 10 10 9 7 6 7 6 3 3 3 3 1 1 1 2 4 4 3 5 6 6 9 8 7
4 2 1 2 4 6 8 7 8 8 8 8 7 8 9 9 6 5 11 14 13 12 10 12 17 18 18 16 15 15 16 17 17 18 18 18 17 16 15 14 13 12 11 11 11 12 13 13 14 15 17 19 21 22 22 21 19 18 18 16 16 17 18 17 16 15 13 14 14 12 12 11 10 11 10 10 9 8 8 7 4 4 5 4 2 1 1 3 5 3 1 4 4 6 8 8 7
1 3 1 1 2 4 6 7 7 7 8 8 7 7 8 8 5 8 14 15 14 14 13 15 18 20 19 16 15 16 17 18 18 18 18 18 17 16 15 14 12 11 11 10 10 11 12 12 13 14 15 18 21 23 23 23 21 20 19 18 18 18 18 17 17 16 15 17 14 10 12 12 11 11 11 10 10 9 9 7 5 6 6 5 4 2 2 3 4 2 2 4 4 5 7 7 7
2 2 0 2 3 4 6 8 9 7 7 8 7 5 6 5 3 7 11 14 16 16 17 18 19 19 19 17 17 17 18 19 18 19 19 18 17 16 15 13 12 11 11 10 10 11 12 12 13 13 15 17 21 24 25 24 23 21 20 20 19 19 18 18 19 19 18 16 13 12 13 14 13 12 11 11 10 10 10 9 7 7 6 6 6 5 4 4 4 4 4 4 3 4 6 5 5
2 2 4 5 4 6 7 9 10 8 4 8 8 3 4 1 3 8 9 13 18 19 20 20 20 19 19 18 18 18 20 20 19 19 18 17 16 15 14 14 12 11 11 11 11 12 13 13 13 14 14 16 20 24 25 25 24 22 21 19 18 18 19 19 19 18 17 14 12 13 14 14 14 14 14 13 12 12 11 10 8 7 8 9 10 9 7 6 5 5 5 5 6 6 4 2 3
1 3 4 6 8 5 7 7 10 10 3 6 7 2 5 4 7 9 7 13 18 19 21 21 21 20 19 19 19 20 21 22 22 20 18 16 15 15 15 15 14 13 13 12 12 13 14 15 14 15 15 16 20 24 26 26 25 24 23 20 18 18 18 17 17 15 14 14 13 13 13 14 15 15 15 15 14 12 10 8 7 8 11 12 12 9 8 7 7 7 8 8 7 4 2 1 2
0 2 2 4 8 5 4 1 8 10 3 6 8 1 6 7 12 10 7 13 19 20 21 21 21 20 20 21 21 21 23 24 23 20 18 17 17 17 17 16 16 15 14 13 13 13 14 16 16 16 17 17 20 23 25 25 24 24 24 23 22 22 20 18 18 16 14 13 14 14 14 14 15 15 15 14 12 9 7 6 8 10 11 11 10 10 10 9 9 8 8 7 4 2 1 1 2
0 1 2 2 2 4 6 2 10 8 2 8 9 1 7 8 11 11 11 15 18 21 22 22 22 22 22 23 23 23 24 25 23 21 20 18 18 18 18 18 17 17 15 14 13 14 15 17 17 18 18 19 21 23 23 23 22 22 23 22 22 22 21 20 18 16 14 14 15 15 15 14 14 13 14 12 9 9 9 8 9 9 9 9 9 9 9 8 7 6 5 3 2 3 3 2 2
2 1 3 3 1 5 9 1 11 7 2 8 7 1 7 9 10 7 12 17 19 21 22 23 24 24 24 25 25 25 26 25 24 23 21 20 19 19 18 18 17 16 15 14 13 14 15 17 18 19 19 20 20 22 22 22 21 21 20 21 22 22 19 19 18 17 15 14 15 15 15 14 13 12 12 11 11 11 11 10 10 10 9 8 8 8 7 6 5 4 4 4 4 5 5 3 3
3 1 3 2 2 3 6 2 7 6 4 5 4 2 4 5 4 4 13 18 20 21 22 24 25 25 26 27 27 27 27 28 28 27 24 22 21 19 19 18 17 16 15 14 13 14 15 17 19 19 20 20 20 19 19 20 21 22 21 22 23 23 21 20 19 17 15 15 14 14 14 13 13 13 11 11 13 12 11 12 11 11 10 9 9 8 7 6 4 4 4 5 6 5 4 3 3
4 1 1 4 3 2 3 4 3 5 4 3 4 4 7 6 3 6 13 18 20 22 24 26 27 27 28 28 28 28 29 31 32 30 26 24 22 21 20 19 18 17 15 14 14 14 15 17 19 20 20 21 23 22 21 22 24 23 22 21 21 20 21 20 18 16 14 14 13 13 13 12 12 11 11 11 13 12 12 12 12 11 11 10 9 7 5 5 4 3 3 4 4 3 3 4 5
3 3 1 3 2 2 4 4 3 6 2 4 4 5 11 11 10 11 14 17 21 25 27 26 27 29 29 29 30 30 31 33 33 31 27 25 23 21 21 20 19 18 17 16 15 15 16 18 20 21 21 22 24 24 25 25 24 23 22 22 21 20 20 18 16 15 14 14 14 13 11 11 11 11 12 12 11 11 11 11 10 10 9 8 6 5 4 3 2 2 3 5 6 5 5 5 6
6 6 4 4 3 3 5 5 6 8 3 5 8 8 11 11 11 14 15 19 23 26 27 26 26 28 29 31 32 32 33 34 33 31 28 27 24 22 23 22 20 19 18 17 16 16 17 19 20 21 23 23 23 24 25 24 23 25 25 23 22 21 19 17 16 16 16 16 14 13 11 12 12 11 12 12 10 10 10 9 9 9 8 6 5 4 4 4 5 6 8 9 8 7 7 6 6
5 4 3 4 4 4 4 4 6 6 5 5 9 9 11 11 9 13 16 15 20 25 26 27 29 29 31 33 35 36 35 34 33 32 30 29 26 24 24 24 22 21 20 18 17 17 18 20 21 23 24 23 24 25 25 23 23 24 24 24 23 20 17 18 19 18 17 15 14 14 13 13 12 12 12 11 10 10 10 9 8 8 7 6 6 7 7 8 8 8 8 9 9 7 8 8 7
2 3 2 3 4 5 6 4 5 3 4 6 6 7 11 12 10 15 14 9 17 26 27 30 34 32 33 36 37 38 36 35 34 34 33 31 28 27 26 25 23 22 21 19 18 19 19 20 21 23 24 23 24 25 26 24 24 24 23 24 23 19 19 20 20 19 16 15 16 15 14 14 13 12 12 11 11 10 9 9 8 8 8 9 10 10 10 9 9 9 7 8 8 6 7 8 8
2 2 2 4 3 4 6 4 4 0 3 5 5 5 10 11 10 13 15 14 20 29 31 34 35 33 35 38 39 38 37 37 37 36 36 34 31 29 28 26 24 22 20 19 19 19 21 22 22 23 27 27 25 26 27 27 27 26 23 22 21 20 22 21 20 18 17 17 17 16 14 14 13 12 12 11 11 10 9 10 11 12 12 11 10 10 11 10 9 9 7 7 7 7 8 9 8
4 3 3 4 4 2 3 4 3 1 2 4 4 6 8 9 8 11 20 22 23 30 33 34 34 34 37 39 38 39 40 41 40 38 38 37 34 31 30 28 25 24 22 21 20 20 23 24 23 24 27 28 28 28 27 26 26 25 21 19 20 22 22 22 22 20 19 19 18 17 15 14 13 13 13 12 12 13 13 13 14 14 14 12 10 9 10 10 9 9 8 7 6 6 8 10 8
5 5 6 5 4 5 6 3 4 3 4 2 3 7 7 7 8 10 14 13 16 26 28 29 34 38 38 36 37 40 42 42 42 40 40 39 37 34 31 29 27 25 24 23 22 22 24 24 24 25 25 27 28 26 24 25 25 24 23 23 25 24 23 24 24 22 21 21 19 17 16 15 15 15 16 16 15 15 15 14 14 13 13 12 10 8 9 9 8 8 8 7 6 6 7 8 9
5 6 9 9 7 7 5 2 4 4 5 3 2 4 6 4 5 9 7 4 9 17 17 23 33 35 35 35 37 39 39 40 41 40 40 40 39 36 32 30 29 27 25 24 23 23 24 24 24 26 25 27 27 24 24 25 24 24 26 27 27 26 26 26 24 22 22 21 20 18 18 19 19 18 18 17 16 15 14 14 13 12 11 11 10 8 7 7 7 7 6 5 5 5 6 6 8
4 6 8 9 7 5 4 1 2 0 4 3 2 2 7 6 4 7 7 6 11 12 11 20 29 30 32 35 37 37 37 39 40 39 39 39 39 37 34 33 31 29 26 26 25 25 26 25 25 26 26 26 25 24 26 25 24 25 26 26 25 25 26 25 23 22 22 22 21 22 23 22 21 19 18 17 16 15 14 13 12 11 11 10 9 7 6 6 5 5 5 4 4 5 4 3 5
4 5 6 7 6 5 5 4 4 3 3 4 3 3 5 8 6 7 7 8 12 13 12 18 26 30 32 33 34 35 37 40 41 41 41 40 39 38 36 34 32 29 27 27 27 27 27 27 26 25 24 25 25 26 27 26 26 26 26 25 24 23 24 25 25 24 24 24 25 25 24 23 22 20 18 17 16 14 13 13 12 11 10 9 8 6 5 5 4 5 5 4 4 4 4 3 3
6 4 6 6 6 5 3 5 3 1 2 4 3 2 3 8 6 4 2 6 11 13 13 14 22 28 29 30 31 33 36 38 40 42 42 41 40 37 35 33 31 30 29 29 29 29 28 28 26 24 23 26 27 27 27 26 26 26 25 25 25 24 24 25 27 27 27 27 27 26 24 23 22 20 19 17 16 15 13 12 11 9 8 7 7 5 5 5 5 5 5 5 5 5 5 6 5
4 6 7 6 5 5 5 4 3 3 2 5 5 4 4 7 5 2 1 3 9 12 10 11 19 24 23 23 26 29 33 35 38 40 40 40 39 36 34 32 31 30 30 30 30 30 29 28 27 25 25 27 28 28 27 26 26 25 25 26 27 27 28 29 30 30 30 29 27 26 25 24 22 21 19 18 16 15 13 11 10 8 7 7 6 5 6 6 6 6 6 6 6 7 7 7 6
8 8 6 6 6 5 4 3 4 2 4 6 9 9 6 5 4 4 3 5 7 8 7 8 14 18 17 18 20 24 30 33 36 38 39 39 37 35 34 32 32 32 32 32 31 31 30 29 28 27 26 27 28 28 27 26 26 26 26 27 29 30 32 34 33 33 31 30 28 27 25 24 22 21 19 18 16 15 13 11 10 8 7 6 5 6 6 6 6 6 6 7 7 7 7 7 7
7 5 5 4 4 4 4 4 4 0 6 6 6 6 7 7 6 3 5 6 5 7 7 7 9 11 12 13 16 20 26 31 34 37 39 39 38 37 35 34 33 34 34 34 33 32 32 31 30 29 29 28 28 28 28 27 27 27 27 28 30 31 34 34 33 32 31 30 28 26 25 24 22 21 19 18 17 15 13 11 9 7 6 6 6 6 6 5 5 5 6 6 6 7 7 7 7
5 5 6 3 3 3 3 3 1 3 7 4 1 2 4 9 7 7 10 10 10 10 10 10 11 13 15 16 17 19 23 29 33 36 38 39 39 39 38 36 36 36 36 35 35 34 33 32 32 31 31 30 30 29 28 28 28 28 29 29 31 32 33 32 30 29 29 28 26 25 24 22 21 21 19 18 16 15 12 10 8 7 6 6 6 5 4 4 5 5 6 6 6 6 6 7 7
5 5 6 5 2 0 3 4 2 4 6 4 1 2 4 5 5 11 15 16 18 17 16 17 18 21 23 22 20 21 23 27 31 35 37 39 40 40 38 37 37 37 37 36 36 36 34 34 33 33 32 32 32 30 28 28 29 29 30 30 32 33 33 31 28 27 26 25 24 22 20 20 19 19 19 17 16 15 12 10 8 7 7 6 5 4 3 4 4 4 4 5 5 5 5 6 6
5 4 6 5 5 4 4 4 4 4 4 4 2 2 4 3 2 8 11 14 17 18 20 22 21 20 21 21 20 22 25 27 30 34 36 38 39 39 38 36 36 37 38 37 37 37 36 35 35 34 33 33 33 31 29 29 30 31 31 31 32 33 31 29 27 25 24 23 22 20 19 19 19 18 18 17 15 14 12 11 9 7 6 5 4 3 3 3 3 3 3 3 3 3 4 5 6
2 3 5 3 5 5 3 3 5 3 2 4 2 4 5 4 5 8 8 10 11 13 18 19 18 16 15 18 21 23 26 27 30 33 35 37 38 38 37 35 35 37 38 38 38 37 37 36 36 35 34 34 34 32 30 30 32 33 33 32 33 33 31 29 27 26 23 22 21 20 20 20 19 18 18 17 15 14 12 11 9 8 7 5 4 4 2 2 1 1 1 2 2 3 3 4 5
1 3 4 3 4 5 2 3 1 2 3 4 3 5 5 3 7 9 7 9 9 10 14 15 16 14 14 19 21 23 26 27 29 32 34 37 37 37 36 34 35 37 39 39 38 38 37 37 37 36 35 35 34 32 31 32 34 34 34 34 34 33 31 29 27 26 24 23 22 21 21 21 20 19 18 17 16 15 13 11 9 9 8 7 6 4 3 2 1 1 2 2 3 3 3 5 6
5 4 6 2 2 2 2 2 3 2 4 5 3 7 5 2 6 5 1 5 10 12 11 11 14 15 19 24 23 23 25 26 29 31 33 35 36 36 35 34 34 36 37 38 38 37 37 37 37 37 37 37 35 33 33 34 35 35 35 35 35 33 31 29 27 26 25 24 24 23 22 22 21 20 19 18 16 15 14 12 11 10 10 8 7 5 4 3 3 4 4 4 3 3 4 5 6
4 4 5 4 1 1 2 2 2 1 4 5 3 6 5 5 6 2 2 7 10 12 9 7 12 18 24 29 27 24 25 26 29 31 33 35 35 35 34 33 34 34 36 37 37 37 38 38 37 37 38 37 35 34 35 35 36 36 36 36 35 34 32 30 28 27 26 25 25 24 23 22 22 21 20 18 17 15 14 13 13 13 11 9 8 6 5 5 6 6 6 5 4 4 5 5 6
4 3 3 2 2 4 3 3 3 3 3 4 3 2 4 7 7 7 9 11 10 10 7 7 13 21 28 31 29 26 27 28 29 31 33 34 33 33 33 32 33 34 35 36 37 38 38 39 39 38 39 38 36 36 36 37 37 37 37 36 36 34 33 31 29 28 27 26 25 24 24 23 23 22 21 19 17 15 15 15 15 14 12 10 8 8 7 8 8 8 7 6 5 5 5 6 6
3 4 4 2 1 2 1 1 2 3 3 3 4 5 6 5 5 9 12 11 10 9 8 8 15 23 28 29 29 29 29 29 29 30 32 32 32 32 32 32 32 32 33 35 37 39 39 40 40 41 41 40 39 38 38 39 39 39 38 38 37 36 34 32 30 29 27 26 26 25 24 24 23 22 21 19 18 17 16 16 16 14 13 11 10 9 10 10 10 9 8 6 5 5 5 6 6
6 7 8 8 6 4 2 3 1 2 3 4 3 7 8 4 4 7 9 8 9 11 10 10 16 23 27 27 27 29 29 28 28 29 31 30 30 31 32 32 32 33 34 35 38 40 41 42 42 42 43 42 41 41 41 41 41 41 40 39 38 37 35 34 32 30 29 28 27 26 26 25 24 23 21 20 19 18 18 18 17 15 14 13 12 11 12 12 11 10 8 6 6 6 6 6 7
Wind_Direction
229 234 255 135 112 247 347 67 98 19 66 90 41 81 354 245 166 84 25 5 63 54 70 79 84 100 102 104 113 94 66 81 180 123 136 152 156 180 175 163 163 143 158 162 158 162 162 156 146 138 131 124 114 104 92 86 84 83 81 82 79 80 90 98 104 104 102 99 91 83 74 66 57 59 71 76 74 69 62 59 52 46 40 34 32 33 35 36 38 46 60 70 72 72 75 81 87
214 227 231 158 100 337 241 56 84 7 54 75 343 121 185 331 55 119 171 129 110 102 93 88 87 91 97 102 99 77 55 59 101 116 124 135 152 182 164 149 149 143 153 163 160 158 160 161 155 148 141 133 122 115 100 89 81 75 71 72 72 76 90 98 102 104 104 98 88 76 65 56 51 54 73 82 76 71 67 63 55 43 33 27 28 31 34 36 36 40 49 62 69 69 71 80 91
201 211 188 174 313 37 119 52 88 86 71 98 288 272 59 66 127 192 191 127 114 117 109 94 83 79 91 86 57 63 75 78 96 114 124 134 153 174 156 137 139 146 152 164 163 157 160 163 157 151 150 142 130 124 111 100 87 79 76 74 74 76 87 96 100 106 110 103 90 76 62 54 55 59 77 88 80 72 65 54 47 36 28 26 27 31 35 37 38 41 46 56 65 66 66 72 86
186 178 140 164 271 47 70 52 114 113 105 142 193 272 254 146 175 212 163 107 111 123 122 98 72 63 87 90 73 84 101 106 108 122 134 142 157 168 150 135 143 153 147 161 162 159 163 161 159 156 156 146 134 128 118 113 97 89 87 85 84 82 86 92 96 106 115 109 92 74 62 60 66 69 79 89 83 75 66 50 39 30 26 26 28 32 36 37 40 43 48 54 61 62 60 65 78
168 145 97 77 77 69 79 69 96 97 151 171 140 249 239 182 186 206 143 99 100 117 120 106 84 84 87 86 95 96 101 122 127 138 148 155 164 169 152 143 152 156 145 157 161 162 163 158 159 159 160 151 142 139 127 121 108 96 94 96 96 93 94 92 89 99 113 105 84 72 65 67 75 76 81 86 82 75 71 64 51 38 32 29 31 34 36 38 41 44 50 55 59 59 57 61 70
154 131 75 68 78 85 85 73 83 80 189 162 139 217 221 197 177 163 127 93 86 106 127 121 119 109 85 71 72 91 123 119 133 148 153 159 164 166 157 149 155 156 142 154 162 166 167 164 159 155 163 161 152 148 138 133 119 109 105 105 107 105 104 100 95 96 100 87 73 74 72 74 78 79 82 85 81 74 72 71 63 47 37 34 34 34 36 38 40 44 50 56 60 59 58 60 64
163 153 71 77 68 56 87 101 126 116 192 164 155 181 204 194 158 137 122 102 81 88 119 129 127 110 84 83 72 79 120 129 140 148 150 156 161 164 162 153 157 154 138 148 157 166 172 172 169 160 163 167 164 156 150 145 133 123 117 113 115 112 108 108 104 97 89 80 79 83 79 77 80 81 82 84 81 75 69 64 56 45 40 39 36 34 35 37 39 42 47 55 60 60 60 61 62
147 131 79 86 48 38 94 100 139 162 139 169 165 171 184 174 150 133 127 123 98 91 119 134 131 103 87 156 106 95 124 148 147 148 149 152 159 166 170 161 160 154 143 146 156 168 174 177 178 175 169 169 173 167 160 154 146 136 130 126 126 118 113 111 107 98 87 84 88 89 84 81 83 80 78 79 75 69 61 52 44 40 42 41 35 34 34 34 36 39 43 51 58 61 61 60 59
107 87 70 82 72 47 71 69 85 177 154 152 159 170 169 161 151 136 125 106 107 99 128 158 145 108 151 133 120 128 139 149 146 147 149 152 159 168 177 172 170 160 152 156 163 173 178 181 180 181 182 177 177 177 173 166 165 153 143 144 141 134 124 116 112 100 91 92 93 96 93 86 87 81 76 72 64 57 54 47 39 35 37 37 34 35 33 31 33 35 39 45 53 60 60 60 58
80 66 87 84 80 68 68 80 121 150 192 182 160 157 155 158 155 136 126 110 109 89 105 159 138 128 148 130 131 147 146 149 148 151 154 157 162 170 177 178 184 174 165 169 175 182 185 187 183 184 190 188 183 182 181 174 177 171 160 159 157 152 137 127 119 106 98 97 95 101 99 91 88 81 75 68 58 47 47 46 38 32 29 30 31 33 31 28 28 30 35 40 46 54 57 58 56
62 45 98 84 74 112 153 168 200 219 255 272 146 127 122 146 142 125 120 111 110 99 106 132 126 131 134 134 155 160 155 153 153 157 160 164 173 177 181 183 188 187 182 182 186 193 193 193 191 192 195 197 192 187 188 185 188 187 182 176 173 170 150 138 128 112 104 98 92 92 90 88 80 73 70 62 52 41 42 43 37 31 27 27 28 29 28 26 25 26 31 37 42 46 52 53 52
68 2 77 90 101 157 178 149 167 213 300 310 151 117 108 134 130 127 126 117 115 105 103 133 146 142 120 143 166 164 164 159 158 165 167 171 183 185 190 192 192 195 198 198 199 202 204 201 198 201 201 201 200 196 196 196 196 194 192 189 182 180 166 151 138 121 112 107 96 87 80 76 65 59 55 42 35 29 29 31 30 28 24 23 23 24 24 23 22 25 31 38 42 45 48 50 50
110 170 83 90 129 136 138 134 171 131 350 235 185 129 113 121 130 145 133 118 119 104 93 139 156 152 119 171 172 172 174 171 165 168 171 175 188 194 197 198 199 202 208 212 211 210 213 212 210 210 204 202 206 205 204 205 205 202 199 199 194 188 184 177 162 143 135 130 116 104 98 78 46 35 32 22 24 25 19 20 21 18 17 17 17 18 20 21 22 27 34 40 44 46 48 49 48
112 151 100 107 84 115 134 122 176 136 218 244 206 134 112 99 135 149 135 107 71 103 110 142 163 163 141 163 181 182 177 177 172 169 173 175 186 196 201 203 206 206 210 216 215 214 211 216 215 213 207 206 210 208 208 210 210 211 210 209 207 202 199 199 195 172 161 154 143 137 134 131 352 348 352 1 21 24 18 20 21 18 16 16 17 17 18 20 25 32 39 45 47 48 49 49 48
111 120 94 103 57 98 149 138 165 150 208 233 179 133 109 105 137 147 142 126 82 129 126 140 167 184 177 172 188 184 174 178 179 175 175 175 184 192 200 205 207 207 209 210 211 213 207 208 211 212 212 213 216 213 212 213 212 214 214 213 215 215 210 206 202 189 182 178 169 167 164 184 251 288 297 337 25 26 24 30 34 27 20 21 23 24 23 24 33 43 48 52 52 51 50 49 48
99 101 77 79 66 128 159 153 137 138 222 218 165 137 110 113 139 136 140 145 141 152 159 155 166 200 181 178 179 174 172 181 184 183 183 183 188 192 197 202 206 209 210 208 208 210 208 205 204 209 215 219 221 218 217 217 214 213 213 214 215 216 213 208 203 192 188 187 185 193 192 202 221 237 254 247 55 29 41 56 50 39 27 23 27 33 32 30 41 54 58 57 55 52 50 48 47
84 80 64 67 103 149 168 170 163 167 215 213 174 154 130 128 140 129 131 153 153 153 164 157 159 154 170 182 175 171 176 184 185 186 188 190 195 198 201 202 206 210 212 211 209 209 209 208 204 205 211 216 220 221 220 220 218 215 214 213 214 213 211 210 203 193 195 200 203 208 212 216 220 228 236 230 221 200 139 73 57 51 38 23 27 40 39 35 52 64 61 59 55 51 49 46 44
71 94 82 97 150 166 180 184 194 171 167 187 183 170 154 151 151 142 131 144 150 146 148 143 155 165 172 182 175 177 182 186 189 190 194 197 199 202 204 206 208 211 214 214 213 211 210 210 209 206 206 209 215 221 221 221 222 222 219 216 215 213 210 212 208 202 206 212 213 218 225 227 226 226 224 224 216 196 188 65 54 53 48 33 36 47 45 45 66 73 62 59 61 56 52 47 42
68 96 92 165 198 201 205 180 189 172 159 170 174 174 172 171 166 157 153 165 153 143 146 147 162 170 173 178 177 181 186 192 197 199 203 205 206 208 208 209 209 211 214 216 217 217 215 213 211 210 208 208 212 216 217 220 223 226 225 221 219 217 217 218 216 215 220 225 229 235 236 231 231 230 221 216 212 207 237 248 90 78 76 63 52 51 47 60 75 70 58 59 65 60 53 49 42
50 84 92 226 205 176 87 141 177 185 161 155 159 174 181 176 172 172 172 173 174 180 179 176 184 184 180 181 182 184 190 198 201 205 210 211 212 213 213 214 212 212 213 215 218 220 222 220 216 213 212 212 215 213 211 214 219 223 225 224 222 221 222 223 225 226 227 227 226 232 233 226 222 229 229 222 223 238 254 229 149 112 103 101 71 41 24 61 70 52 48 51 62 60 48 42 36
36 91 141 200 180 141 109 118 129 164 157 152 153 153 166 173 181 188 161 147 215 220 207 209 210 201 191 186 187 190 196 201 203 207 211 215 218 216 218 217 214 213 213 216 218 220 223 225 223 219 216 215 217 216 212 211 212 216 222 223 222 221 223 225 226 224 222 223 222 224 227 225 216 220 227 220 226 253 259 231 161 129 112 111 76 17 349 37 44 28 31 29 40 46 36 30 26
64 37 159 164 161 149 147 128 121 154 158 153 151 148 167 176 189 197 178 170 227 225 221 227 227 216 203 194 191 193 198 202 206 207 210 216 220 221 223 221 219 219 219 220 219 220 221 224 225 223 220 218 217 217 216 215 210 210 216 219 218 219 220 222 224 223 225 226 226 228 227 226 221 217 216 211 225 257 256 207 163 139 117 112 228 331 348 1 10 9 14 13 18 21 14 15 20
93 321 100 141 165 159 159 153 140 159 164 159 161 173 178 177 203 213 211 223 233 234 227 224 226 215 205 201 196 195 197 201 205 208 211 215 219 223 225 226 228 225 224 222 219 220 221 220 221 222 221 218 216 215 217 217 210 207 211 211 212 217 218 220 221 223 226 227 228 229 226 222 220 218 216 217 227 228 193 179 211 244 171 184 213 322 347 352 355 350 353 1 5 360 353 3 23
100 167 301 104 143 150 158 169 166 168 177 180 180 183 184 186 206 226 230 238 242 242 220 209 214 205 198 199 198 197 196 198 202 205 210 215 219 222 224 225 224 222 221 218 215 218 221 220 218 219 219 217 215 214 216 216 209 205 207 205 205 214 220 219 221 223 224 231 234 227 221 220 217 220 222 224 225 211 195 200 244 247 207 219 236 342 299 299 303 284 323 359 355 342 340 356 27
76 143 226 106 132 154 162 175 179 181 187 188 185 191 200 201 212 251 240 238 240 233 214 199 200 197 195 197 200 201 199 199 201 203 206 210 214 216 218 219 217 218 218 215 215 220 223 221 218 217 216 215 214 213 214 216 211 204 204 203 204 211 216 215 221 226 217 225 235 223 217 224 222 222 220 218 216 208 205 212 228 214 206 220 233 231 235 277 278 250 325 346 329 329 336 353 18
93 130 112 109 159 177 188 202 200 196 197 189 191 215 226 220 238 265 245 234 230 219 204 195 195 195 197 202 208 209 207 204 203 205 207 208 210 212 213 216 218 220 223 223 223 227 228 226 223 219 215 213 213 212 212 216 213 206 203 204 207 211 215 215 219 221 212 218 230 222 219 226 225 223 217 212 211 213 220 228 228 217 214 222 230 222 239 281 271 251 281 290 300 322 327 343 7
137 106 339 249 244 252 228 225 224 212 210 205 203 233 249 226 212 252 240 219 214 207 196 195 197 201 205 211 215 214 213 210 209 210 210 212 212 212 214 217 221 223 229 232 231 235 237 234 230 224 217 213 212 210 210 215 214 209 207 207 210 211 210 212 216 220 220 223 224 218 221 225 225 227 228 227 227 232 238 240 234 232 234 233 229 221 226 242 243 244 248 253 270 294 308 330 353
117 23 312 291 309 289 242 228 227 209 213 220 209 247 283 201 194 245 237 208 208 205 200 200 204 210 215 218 218 217 214 210 211 213 214 218 217 217 218 218 222 227 232 235 236 237 239 239 234 229 223 213 210 209 210 214 212 206 207 209 212 215 215 215 220 223 220 220 218 216 220 223 223 225 228 230 231 234 236 237 238 245 243 226 215 213 219 217 212 218 221 243 258 260 279 317 321
59 29 324 310 354 329 246 232 215 194 207 219 191 297 297 228 220 241 232 205 204 204 205 208 210 216 220 222 222 219 215 212 212 215 217 219 220 220 220 220 222 225 230 234 237 236 237 237 231 227 224 214 209 208 209 213 210 204 205 205 203 211 219 218 221 225 218 217 222 223 223 221 219 219 221 222 222 225 230 235 234 232 220 203 198 200 205 203 205 215 222 247 255 237 239 256 282
303 33 31 324 1 336 286 307 186 179 197 188 157 275 276 251 239 233 220 205 200 201 209 214 215 219 222 224 226 222 216 214 213 214 217 218 219 218 219 221 220 223 227 230 235 236 234 233 227 221 219 212 207 207 209 211 210 206 207 205 204 212 219 218 222 229 227 223 224 226 226 225 223 222 223 221 217 214 212 207 203 207 198 187 191 196 197 201 211 223 230 243 242 193 206 197 205
295 12 28 11 13 282 310 25 159 160 205 177 145 232 262 271 264 239 221 211 203 206 211 216 219 220 224 226 227 225 219 216 215 215 217 218 218 218 219 219 220 223 225 227 231 234 230 228 225 217 213 210 205 205 205 206 206 208 213 212 211 217 221 222 226 229 227 222 221 225 228 230 230 230 232 224 207 199 194 192 193 197 196 195 202 199 199 209 218 232 233 220 168 152 168 174 226
32 36 315 344 140 264 313 311 166 159 191 177 148 246 263 277 282 243 211 206 206 212 216 219 223 223 225 228 228 227 223 218 216 216 217 218 218 220 220 220 221 223 225 228 230 232 227 224 221 214 210 206 205 206 203 203 205 208 216 217 215 216 218 219 223 224 223 220 220 226 232 233 229 231 235 214 193 195 196 200 204 204 210 214 210 203 206 220 227 232 217 169 154 182 200 223 268
358 90 245 268 172 270 322 319 190 170 142 183 195 236 266 282 286 201 196 203 206 214 221 223 226 228 227 228 229 227 223 219 218 217 216 218 219 220 221 222 224 226 230 231 231 233 227 221 218 212 207 200 199 206 204 200 204 207 214 222 224 220 218 219 222 224 221 218 217 222 229 228 223 223 222 205 197 203 205 210 217 219 226 227 220 218 218 222 221 213 199 179 180 203 213 208 221
317 355 231 240 207 222 294 313 241 167 138 212 225 236 250 266 271 196 196 205 209 216 226 228 228 231 230 229 229 228 226 222 221 220 217 219 220 221 223 223 225 228 231 230 229 231 225 220 215 209 204 197 194 198 198 199 207 211 210 218 226 223 221 220 218 218 215 212 210 216 221 215 215 210 195 197 206 211 212 215 221 224 225 221 217 219 219 217 215 212 199 177 167 176 183 178 194
197 191 203 250 237 217 247 282 225 163 154 225 206 247 255 263 270 241 216 209 213 224 232 233 232 231 230 229 230 231 230 227 226 223 220 222 222 223 226 226 226 227 229 228 226 224 219 218 213 203 200 198 195 196 199 204 209 208 204 211 219 221 222 218 209 206 204 204 203 207 209 198 201 198 186 195 206 208 210 212 214 214 209 208 209 210 208 197 179 118 98 110 123 144 173 188 194
168 176 156 176 211 249 240 257 233 174 158 230 213 235 251 256 263 253 236 217 219 233 238 239 237 233 230 230 233 234 234 233 229 225 223 223 223 224 227 228 227 226 228 227 225 222 214 213 211 201 199 199 195 194 200 206 204 203 208 215 218 219 220 211 198 196 199 202 199 194 191 187 190 188 183 190 195 196 199 200 200 198 196 197 195 186 167 141 117 105 105 104 112 135 154 167 181
137 139 141 181 199 263 258 265 264 181 158 247 227 231 254 256 259 260 250 222 221 236 241 242 239 236 233 232 234 236 236 236 231 226 225 224 223 223 225 227 225 224 227 226 222 221 215 212 210 201 199 199 196 196 199 201 200 202 207 210 215 218 210 197 190 192 199 200 188 181 181 181 181 179 179 183 186 191 195 196 196 194 190 178 163 149 136 127 119 114 111 108 111 126 138 149 165
137 144 213 250 210 251 255 251 285 196 172 262 247 239 259 257 256 264 254 209 221 234 236 241 241 237 236 235 236 236 236 235 231 227 225 224 221 219 222 225 224 225 227 226 220 218 215 212 210 202 197 197 196 197 196 194 196 202 206 212 218 211 191 187 191 193 195 188 177 177 180 178 178 180 182 185 191 199 198 191 185 175 162 150 144 137 129 126 120 114 109 110 117 123 127 140 156
239 174 194 262 241 267 280 277 309 110 178 262 273 256 261 260 259 264 251 224 232 241 240 245 245 240 237 237 236 234 232 232 230 227 225 224 221 218 221 224 225 226 226 226 220 215 211 209 209 201 194 194 194 197 199 198 199 204 212 218 215 199 186 188 193 191 186 180 177 178 180 181 185 189 191 193 194 188 177 168 161 151 142 139 142 137 132 129 122 120 121 117 119 120 122 133 152
239 196 171 243 251 257 276 285 310 329 213 257 281 277 268 264 264 263 254 244 244 250 250 251 251 246 244 243 242 237 234 231 228 225 224 224 221 219 221 223 224 223 222 224 220 214 211 209 208 200 195 196 197 200 203 201 201 203 206 206 199 195 193 192 193 191 187 183 179 178 183 187 189 190 184 177 171 161 154 154 152 146 141 141 145 140 134 131 127 125 122 113 108 114 121 132 149
246 212 196 219 227 215 227 278 323 333 323 321 320 299 278 253 248 254 261 256 252 254 253 252 253 251 250 248 245 241 237 234 230 226 224 223 222 221 220 221 222 221 221 223 221 215 213 210 205 201 198 196 200 204 200 195 197 196 192 192 193 196 198 196 196 196 189 182 178 177 181 179 173 171 163 158 157 153 153 153 151 150 146 141 141 139 134 130 127 122 115 114 112 107 114 128 142
259 228 205 205 201 213 231 355 19 4 327 327 16 297 281 270 249 255 275 303 267 257 247 246 252 253 249 244 242 239 235 234 232 229 227 225 223 220 218 219 221 222 221 222 219 213 213 211 204 202 201 199 205 206 197 196 199 194 192 195 199 201 201 199 200 198 184 175 174 172 168 162 159 159 155 155 157 157 157 154 152 150 143 138 140 140 133 126 124 119 111 111 109 96 101 123 140
251 239 200 193 183 200 231 153 85 291 263 290 65 202 272 292 250 245 259 266 265 262 251 251 254 254 249 245 242 238 233 230 229 229 227 225 223 220 219 220 222 224 221 218 215 210 210 211 207 208 209 208 209 201 194 199 198 196 200 204 208 209 203 196 192 188 176 168 168 164 159 155 156 158 157 157 159 160 157 151 148 146 142 140 140 137 128 120 116 109 100 85 80 84 93 116 133
236 239 161 159 167 189 211 171 178 229 258 313 21 118 271 282 250 238 241 250 265 266 263 263 260 256 253 249 244 238 235 232 229 227 226 225 225 223 224 224 223 223 219 215 213 210 210 211 211 215 213 208 204 197 197 202 202 204 208 209 209 208 203 190 179 175 170 166 164 161 159 157 157 160 161 161 159 157 154 149 147 148 146 139 133 130 119 109 95 85 83 68 63 68 65 61 78
243 206 122 130 150 152 133 127 167 321 6 297 302 111 259 273 262 271 254 244 264 265 257 259 261 259 258 253 247 240 237 235 232 231 229 226 225 224 225 225 223 220 217 215 213 211 210 211 213 215 209 203 202 203 205 207 209 210 207 202 199 198 197 186 174 169 166 165 165 163 162 161 161 163 163 161 158 154 154 151 150 149 143 131 125 121 102 91 81 72 70 63 54 50 46 44 47
194 131 89 69 74 77 74 95 108 35 339 244 221 174 236 270 250 235 326 238 250 260 257 255 261 265 266 261 251 241 235 233 231 232 232 229 226 223 223 222 221 219 216 214 213 211 209 209 209 209 206 203 204 207 209 210 209 204 197 194 193 191 189 180 170 167 166 167 169 166 166 166 164 165 163 160 158 156 155 153 149 143 133 124 117 100 83 77 71 63 56 50 40 34 36 35 32
127 101 61 44 30 37 45 50 78 38 279 238 213 194 200 270 262 197 210 224 219 237 258 263 265 268 271 269 257 243 236 232 230 229 228 227 223 220 220 220 219 217 215 213 212 211 208 207 206 207 206 205 205 207 208 207 203 196 192 191 191 188 183 177 171 170 170 171 173 170 169 168 166 166 164 162 160 159 158 152 147 140 128 116 100 83 74 66 60 51 40 36 31 26 28 26 21
111 86 74 64 347 7 22 358 47 254 256 247 234 194 178 233 259 229 243 255 228 219 234 251 262 270 276 276 266 250 239 233 229 226 225 222 218 216 216 217 216 215 214 212 211 210 207 206 206 205 205 205 206 207 207 204 198 193 191 190 190 188 183 179 176 175 175 175 176 174 171 170 169 168 167 165 163 160 158 151 144 137 121 105 91 79 72 62 52 43 35 31 26 21 20 16 12
89 96 106 106 308 348 348 307 62 232 252 267 280 129 190 235 249 256 263 269 253 233 229 237 252 271 281 282 272 257 242 234 229 225 223 220 216 215 215 215 214 213 214 212 211 209 207 206 205 204 205 206 207 209 208 204 197 192 190 189 189 188 185 182 181 180 179 178 179 178 175 175 175 172 170 168 164 159 155 151 144 133 117 105 95 84 77 65 52 43 37 28 20 18 15 9 2
146 139 141 153 172 222 274 264 266 262 266 296 348 147 247 270 257 240 241 249 254 257 260 261 266 272 276 277 268 254 241 235 230 226 224 221 218 216 216 216 214 213 213 213 211 209 207 205 204 204 206 208 209 211 209 203 197 191 189 188 188 188 187 185 185 185 182 180 181 182 182 181 179 176 171 169 165 159 156 153 145 135 124 116 108 100 87 70 58 45 33 23 15 11 4 359 352
182 149 139 156 157 176 223 214 224 256 279 299 301 185 211 210 248 242 239 255 265 269 270 270 274 273 270 266 256 244 237 232 229 226 225 223 220 218 217 217 216 214 213 213 212 210 207 205 205 205 207 210 211 210 208 202 196 190 187 186 188 189 190 188 187 188 186 183 182 183 183 181 179 176 172 170 168 162 159 157 149 144 139 134 130 121 99 78 67 41 22 11 2 354 350 347 342
233 109 118 178 179 178 224 206 182 189 290 289 235 226 223 207 261 269 261 274 281 275 270 269 273 271 263 255 245 237 233 229 227 226 225 223 221 220 219 218 218 216 214 214 213 212 209 206 205 206 209 212 211 209 205 199 195 190 185 186 189 191 192 191 189 188 187 184 183 184 182 180 179 178 175 173 171 165 164 162 156 157 160 159 158 151 135 114 84 17 348 331 327 329 332 335 337
168 131 172 205 172 154 201 268 63 91 261 265 205 245 287 306 277 272 252 257 274 275 268 266 269 269 262 252 241 234 231 227 227 228 226 225 222 220 220 219 220 217 215 214 214 213 210 207 206 207 209 211 211 209 203 198 195 191 187 187 190 193 194 193 191 189 187 184 184 185 184 182 181 181 180 178 176 171 168 168 170 174 179 180 178 173 173 185 214 250 266 279 291 304 316 326 333
128 182 199 159 65 100 120 256 347 36 253 267 225 239 268 270 270 308 71 226 255 259 254 261 268 263 258 255 246 236 231 227 228 228 227 227 224 222 221 220 222 220 217 216 215 214 211 209 209 209 210 209 208 208 203 198 196 193 190 189 191 194 195 194 193 191 190 187 187 187 186 185 184 185 185 183 181 177 174 177 184 189 192 190 190 191 198 217 233 242 251 257 267 285 302 317 327
127 178 179 124 119 204 118 171 233 206 251 281 268 241 237 209 227 285 167 207 239 252 245 251 257 249 250 254 250 240 231 226 227 228 228 227 225 224 223 222 222 221 219 217 216 215 211 210 211 212 212 210 208 208 204 200 197 195 194 191 192 195 196 195 195 194 194 192 191 189 189 189 189 189 189 188 186 184 185 189 193 197 201 199 199 206 215 229 238 243 246 250 262 281 297 313 326
55 91 144 109 144 178 163 169 174 168 230 278 293 266 240 222 209 201 208 212 221 241 240 233 245 246 248 252 252 245 235 230 231 232 231 228 226 225 225 225 224 221 219 217 216 215 213 211 211 211 212 212 211 209 205 201 198 197 197 195 193 195 197 197 197 197 196 195 194 194 193 194 194 193 192 192 192 193 195 199 200 202 205 208 212 216 224 234 239 242 243 250 266 282 297 313 330
137 148 170 188 164 116 169 214 132 136 185 242 278 277 258 235 203 191 205 215 211 217 226 231 245 253 256 256 254 251 243 235 236 237 234 229 227 226 225 225 225 222 220 219 217 216 214 213 213 211 211 212 211 208 205 202 199 198 198 197 196 196 198 199 198 198 198 197 197 198 197 197 197 197 196 196 198 201 202 205 206 208 211 216 220 222 231 238 240 241 243 251 270 285 298 314 331
174 183 188 188 178 135 165 248 215 150 198 191 216 270 263 227 195 194 199 208 208 208 213 230 248 257 262 262 260 258 250 240 239 241 237 232 228 226 225 223 222 221 220 219 217 215 214 214 213 211 211 211 211 208 205 203 201 200 200 199 198 198 199 200 199 198 199 199 200 200 200 200 200 201 201 202 205 206 207 209 211 213 217 220 222 228 236 241 240 241 244 253 271 286 298 310 325